{"data":{"norad_id":41875,"epoch":"2026-09-20T04:34:09.906816Z","epoch_age_seconds":44940,"freshness":"FRESH","line1":"1 41875U 16073A   26263.19039244  .00000265  00000+0  61273-4 0  9998","line2":"2 41875  98.1526 156.5048 0001572  74.1297 286.0078 14.62752119522718","mean_motion":14.62752119,"eccentricity":0.0001572,"inclination_deg":98.1526,"raan_deg":156.5048,"arg_perigee_deg":74.1297,"mean_anomaly_deg":286.0078,"bstar":6.1273e-5,"rev_number":52271,"period_min":98.444567695068,"perigee_km":683.19136683267,"apogee_km":685.4117975229,"semimajor_km":7062.4385821778,"source":"CELESTRAK","updated_at":"2026-09-20T09:00:33.969140Z"}}